Location: Doughton Park
(36.4224°N, 81.1835°W)
Time: 14:25:15
(UTC-04:00)

Amateur Radio Satellites - All Passes

Search period start: 28 July 2014 13:55
Search period end: 29 July 2014 13:55
Location: Doughton Park, 36.4224°N, 81.1835°W

Satellite Date Start Highest point End Downlink Frequencies (MHz)
Time Altitude Azimuth
SO-50 28 Jul 14:05:09 14:09:09 32° 307° (NW) 14:13:15 436.795 FM
AO-27 28 Jul 14:05:35 14:10:11 32° 69° (ENE) 14:14:47 436.795 MHz FM
Uribyol 2 28 Jul 14:06:08 14:10:46 34° 70° (ENE) 14:15:25 436.500 FM
Gurwin Techsat 1B 28 Jul 14:25:14 14:29:00 20° 65° (ENE) 14:32:46 435.225 FM
UOSAT-12 28 Jul 14:29:24 14:33:24 31° 113° (ESE) 14:37:30 437.025 FM, 437.400 FM
Oscar 19 28 Jul 14:37:35 14:42:35 56° 259° (W) 14:47:37 437.125 CW, 437.150 USB
AO-7 28 Jul 14:54:26 14:58:37 15° 51° (NE) 15:02:48 29.400 - 29.500 MHz
AO-Echo 28 Jul 14:58:32 15:03:49 77° 258° (WSW) 15:09:10 ?
KITSAT 1 28 Jul 14:59:47 15:06:26 27° 46° (NE) 15:13:01 435.175 FM
Oscar 16 28 Jul 15:06:43 15:11:02 27° 264° (W) 15:15:22 437.025 USB, Beacon 2401.1428
ITAMSAT 1 28 Jul 15:25:33 15:30:28 42° 261° (W) 15:35:25 435.822 SSB
JAS-1B 28 Jul 15:37:59 15:46:37 77° 257° (WSW) 15:56:27 435.800 - 435.900 CW/SSB
TMSAT-1 28 Jul 15:39:14 15:44:30 74° 75° (ENE) 15:49:48 436.925 FM
AO-27 28 Jul 15:45:17 15:49:39 27° 264° (W) 15:54:03 436.795 MHz FM
Uribyol 2 28 Jul 15:46:00 15:50:14 25° 264° (W) 15:54:30 436.500 FM
RS-15 28 Jul 15:46:04 15:56:27 44° 311° (NW) 16:06:45 29.354 - 29.394 USB, Beacon 29.352 USB
Gurwin Techsat 1B 28 Jul 16:03:30 16:08:35 47° 261° (W) 16:13:42 435.225 FM
UOSAT-12 28 Jul 16:09:38 16:13:32 27° 309° (NW) 16:17:31 437.025 FM, 437.400 FM
OPAL 28 Jul 16:12:03 16:13:18 11° 93° (E) 16:14:34 ?
Saudisat 1A 28 Jul 16:22:22 16:25:18 17° 47° (NE) 16:28:13 436.775 MHz
AO-7 28 Jul 16:41:40 16:49:58 74° 70° (ENE) 16:58:19 29.400 - 29.500 MHz
KITSAT 1 28 Jul 16:54:27 17:02:29 70° 246° (WSW) 17:10:27 435.175 FM
Uosat F 28 Jul 16:55:19 17:00:22 90° 257° (WSW) 17:05:26 435.120 FM
TMSAT-1 28 Jul 17:23:13 17:24:54 11° 270° (W) 17:26:35 436.925 FM
JAS-1B 28 Jul 17:34:23 17:38:39 14° 276° (W) 17:43:09 435.800 - 435.900 CW/SSB
OPAL 28 Jul 17:47:33 17:52:37 74° 287° (WNW) 17:57:44 ?
Saudisat 1A 28 Jul 18:00:54 18:05:09 49° 244° (WSW) 18:09:22 436.775 MHz
Hamsat 28 Jul 18:04:01 18:07:38 29° 71° (ENE) 18:11:16 145.90 MHz
JAS-2 28 Jul 18:05:11 18:12:18 40° 69° (ENE) 18:19:03 435.800 - 435.900 CW/SSB, 435.910 FM
RS-15 28 Jul 18:07:01 18:12:52 15° 343° (NNW) 18:18:45 29.354 - 29.394 USB, Beacon 29.352 USB
AO-7 28 Jul 18:37:25 18:43:21 21° 266° (W) 18:49:21 29.400 - 29.500 MHz
SO-67 28 Jul 18:52:39 18:54:02 12° 68° (ENE) 18:55:25 435.3500 MHz FM
Hamsat 28 Jul 19:40:38 19:43:36 19° 266° (W) 19:46:36 145.90 MHz
JAS-2 28 Jul 19:49:55 19:57:09 40° 263° (W) 20:04:07 435.800 - 435.900 CW/SSB, 435.910 FM
HO-68 28 Jul 19:55:30 19:59:09 15° 56° (NE) 20:02:47 435.675 MHz FM
STRAND 1 28 Jul 20:10:00 20:15:08 76° 103° (ESE) 20:20:12 ?
SO-67 28 Jul 20:23:39 20:26:46 31° 263° (W) 20:29:55 435.3500 MHz FM
RS-15 28 Jul 20:25:24 20:31:55 17° 22° (NNE) 20:38:29 29.354 - 29.394 USB, Beacon 29.352 USB
SO-50 28 Jul 20:59:29 21:02:06 14° 45° (NE) 21:04:43 436.795 FM
MaSat-1 28 Jul 21:04:31 21:07:25 20° 101° (ESE) 21:10:39 437.345 MHz
HO-68 28 Jul 21:38:36 21:45:47 84° 73° (ENE) 21:52:59 435.675 MHz FM
STRAND 1 28 Jul 21:51:48 21:53:37 12° 298° (WNW) 21:55:26 ?
UKube-1 28 Jul 21:52:07 21:56:28 74° 75° (ENE) 22:00:50 145.840 MHz, 145.915 MHz
RS-15 28 Jul 22:37:12 22:47:52 50° 51° (NE) 22:58:51 29.354 - 29.394 USB, Beacon 29.352 USB
Oscar 11 28 Jul 22:37:45 22:42:01 69° 259° (WSW) 22:46:20 145.825 FM, Beacon 2401.500 USB
SO-50 28 Jul 22:38:24 22:43:10 75° 242° (WSW) 22:47:59 436.795 FM
MaSat-1 28 Jul 22:40:51 22:44:26 30° 302° (WNW) 22:48:32 437.345 MHz
ISS 28 Jul 22:53:46 22:55:43 15° 128° (SE) 22:57:40 145.800 FM
FUNcube-1 28 Jul 22:58:24 23:02:44 69° 76° (ENE) 23:06:58 145.950 - 145.970 MHz USB
UOSAT-12 28 Jul 23:01:52 23:04:55 17° 46° (NE) 23:07:56 437.025 FM, 437.400 FM
HO-68 28 Jul 23:30:27 23:34:11 15° 269° (W) 23:37:56 435.675 MHz FM
ISS 29 Jul 00:28:54 00:32:07 46° 323° (NW) 00:35:22 145.800 FM
UOSAT-12 29 Jul 00:40:48 00:45:27 60° 243° (WSW) 00:50:01 437.025 FM, 437.400 FM
Sapphire 29 Jul 00:43:21 00:48:10 34° 109° (ESE) 00:53:01 437.095 MHz 1200 baud AX-25 AFSK
RS-15 29 Jul 00:49:48 01:00:04 45° 251° (WSW) 01:10:44 29.354 - 29.394 USB, Beacon 29.352 USB
PCSat 29 Jul 01:16:05 01:21:28 76° 115° (ESE) 01:26:53 145.825 MHz
AO-40 29 Jul 01:33:24 04:09:35 23° 120° (ESE) 05:24:08 Beacon 2401.320
Oscar 16 29 Jul 01:43:06 01:45:23 13° 91° (E) 01:47:40 437.025 USB, Beacon 2401.1428
ISS 29 Jul 02:09:02 02:09:32 10° 341° (NNW) 02:10:01 145.800 FM
AO-27 29 Jul 02:22:41 02:25:13 14° 92° (E) 02:27:45 436.795 MHz FM
Uribyol 2 29 Jul 02:22:48 02:25:32 14° 92° (E) 02:28:15 436.500 FM
Sapphire 29 Jul 02:26:52 02:31:34 30° 306° (NW) 02:36:18 437.095 MHz 1200 baud AX-25 AFSK
Oscar 19 29 Jul 02:51:36 02:56:44 64° 102° (ESE) 03:01:52 437.125 CW, 437.150 USB
PCSat 29 Jul 03:02:17 03:05:29 16° 313° (NW) 03:08:41 145.825 MHz
AO-Echo 29 Jul 03:09:01 03:13:48 43° 98° (E) 03:18:25 ?
Oscar 16 29 Jul 03:20:01 03:25:07 64° 286° (WNW) 03:30:14 437.025 USB, Beacon 2401.1428
OPAL 29 Jul 03:23:50 03:26:47 16° 62° (ENE) 03:29:45 ?
JAS-1B 29 Jul 03:28:24 03:37:08 46° 96° (E) 03:44:34 435.800 - 435.900 CW/SSB
ITAMSAT 1 29 Jul 03:40:42 03:45:54 85° 103° (ESE) 03:51:03 435.822 SSB
Oscar 10/S400 29 Jul 03:46:29 04:50:07 62° 211° (SSW) 13:06:23 145.825 - 145.975 CW/USB, Beacon 145.810 USB
TMSAT-1 29 Jul 03:58:01 04:02:51 36° 98° (E) 04:07:40 436.925 FM
AO-27 29 Jul 04:00:00 04:05:06 61° 287° (WNW) 04:10:11 436.795 MHz FM
Uribyol 2 29 Jul 04:00:17 04:05:20 58° 287° (WNW) 04:10:22 436.500 FM
Gurwin Techsat 1B 29 Jul 04:22:03 04:27:23 87° 103° (ESE) 04:32:41 435.225 FM
Oscar 19 29 Jul 04:32:49 04:35:30 14° 297° (WNW) 04:38:11 437.125 CW, 437.150 USB
AO-7 29 Jul 04:47:06 04:53:58 28° 96° (E) 05:00:44 29.400 - 29.500 MHz
AO-Echo 29 Jul 04:48:40 04:52:12 19° 295° (WNW) 04:55:38 ?
OPAL 29 Jul 05:00:23 05:05:13 54° 257° (WSW) 05:10:04 ?
Uosat F 29 Jul 05:06:01 05:10:33 34° 98° (E) 05:15:03 435.120 FM
JAS-1B 29 Jul 05:18:59 05:27:23 40° 296° (WNW) 05:34:42 435.800 - 435.900 CW/SSB
ITAMSAT 1 29 Jul 05:23:30 05:24:37 11° 299° (WNW) 05:25:44 435.822 SSB
ISS 29 Jul 05:24:16 05:25:44 12° 22° (NNE) 05:27:11 145.800 FM
KITSAT 1 29 Jul 05:26:47 05:32:38 22° 103° (ESE) 05:38:28 435.175 FM
TMSAT-1 29 Jul 05:38:18 05:42:34 25° 293° (WNW) 05:46:49 436.925 FM
PANSAT 29 Jul 05:49:40 05:52:35 20° 170° (S) 05:55:30 not established
Gurwin Techsat 1B 29 Jul 06:05:14 06:06:33 11° 299° (WNW) 06:07:52 435.225 FM
AO-7 29 Jul 06:38:58 06:47:04 59° 293° (WNW) 06:55:07 29.400 - 29.500 MHz
Uosat F 29 Jul 06:45:09 06:49:08 24° 293° (WNW) 06:53:07 435.120 FM
ISS 29 Jul 06:59:38 07:02:59 67° 40° (NE) 07:06:19 145.800 FM
MaSat-1 29 Jul 07:01:03 07:05:57 37° 60° (ENE) 07:10:34 437.345 MHz
JAS-2 29 Jul 07:03:38 07:08:49 33° 95° (E) 07:13:34 435.800 - 435.900 CW/SSB, 435.910 FM
KITSAT 1 29 Jul 07:19:10 07:27:14 71° 300° (WNW) 07:35:20 435.175 FM
STRAND 1 29 Jul 07:23:19 07:28:28 84° 76° (ENE) 07:33:38 ?
Hamsat 29 Jul 07:27:18 07:31:38 89° 102° (ESE) 07:35:58 145.90 MHz
PANSAT 29 Jul 07:29:06 07:32:17 24° 183° (S) 07:35:28 not established
SO-67 29 Jul 07:50:24 07:52:57 19° 95° (E) 07:55:29 435.3500 MHz FM
Saudisat 1A 29 Jul 08:04:36 08:09:00 78° 119° (ESE) 08:13:26 436.775 MHz
AO-7 29 Jul 08:35:59 08:38:05 11° 312° (NW) 08:40:11 29.400 - 29.500 MHz
MaSat-1 29 Jul 08:38:49 08:43:03 25° 257° (WSW) 08:47:03 437.345 MHz
ISS 29 Jul 08:38:50 08:39:16 10° 234° (SW) 08:39:41 145.800 FM
JAS-2 29 Jul 08:48:54 08:53:45 28° 294° (WNW) 08:58:15 435.800 - 435.900 CW/SSB, 435.910 FM
PANSAT 29 Jul 09:09:33 09:11:56 16° 195° (SSW) 09:14:18 not established
HO-68 29 Jul 09:11:04 09:15:31 17° 92° (E) 09:19:56 435.675 MHz FM
KITSAT 1 29 Jul 09:19:13 09:24:10 17° 322° (NW) 09:29:09 435.175 FM
SO-67 29 Jul 09:23:21 09:25:54 19° 289° (WNW) 09:28:27 435.3500 MHz FM
Sapphire 29 Jul 09:34:16 09:38:00 18° 49° (NE) 09:41:42 437.095 MHz 1200 baud AX-25 AFSK
UKube-1 29 Jul 09:44:27 09:46:59 15° 94° (E) 09:49:31 145.840 MHz, 145.915 MHz
Saudisat 1A 29 Jul 09:47:18 09:49:07 12° 316° (NW) 09:50:57 436.775 MHz
PCSat 29 Jul 10:06:50 10:11:49 35° 56° (NE) 10:16:45 145.825 MHz
Oscar 11 29 Jul 10:28:25 10:32:01 25° 96° (E) 10:35:36 145.825 FM, Beacon 2401.500 USB
FUNcube-1 29 Jul 10:51:23 10:53:52 15° 94° (E) 10:56:22 145.950 - 145.970 MHz USB
HO-68 29 Jul 10:56:40 11:03:48 75° 288° (WNW) 11:10:53 435.675 MHz FM
Sapphire 29 Jul 11:16:30 11:21:51 62° 247° (WSW) 11:27:10 437.095 MHz 1200 baud AX-25 AFSK
UKube-1 29 Jul 11:19:16 11:23:21 40° 288° (WNW) 11:27:23 145.840 MHz, 145.915 MHz
PCSat 29 Jul 11:50:29 11:55:04 28° 252° (WSW) 11:59:36 145.825 MHz
Oscar 11 29 Jul 12:04:35 12:08:05 24° 290° (WNW) 12:11:35 145.825 FM, Beacon 2401.500 USB
FUNcube-1 29 Jul 12:26:32 12:30:23 36° 287° (WNW) 12:34:15 145.950 - 145.970 MHz USB
HO-68 29 Jul 12:47:30 12:50:17 13° 306° (NW) 12:53:05 435.675 MHz FM
SO-50 29 Jul 12:50:59 12:55:23 66° 117° (ESE) 12:59:53 436.795 FM
Oscar 16 29 Jul 12:57:44 13:00:43 16° 64° (ENE) 13:03:42 437.025 USB, Beacon 2401.1428
RS-15 29 Jul 12:58:18 13:08:16 39° 107° (ESE) 13:17:57 29.354 - 29.394 USB, Beacon 29.352 USB
ITAMSAT 1 29 Jul 13:21:01 13:22:36 11° 61° (ENE) 13:24:10 435.822 SSB
Uribyol 2 29 Jul 13:38:12 13:41:41 19° 65° (ENE) 13:45:10 436.500 FM
AO-27 29 Jul 13:38:17 13:41:41 18° 64° (ENE) 13:45:05 436.795 MHz FM
